When you browse on this site, cookies collect data to enhance your experience and personalize the content and advertising you see.
Visit our Privacy Policy to learn more. By continuing to use the site, you agree to this use of cookies and data.
  • In Latvia
  • List of Countries
  • For 7 days
  • Water Temperature
  • Satellite Maps
  • Weather Map
  • Weather Widgets
  • user-avatar
    Login

    Hourly Weather Aluksne

    Today, 23 February, Saturday

    Time Temperature Precipitation Wind Pressure Humidity
    00:00 -9°C° 0 mm 1 mps 761 mmHg 81%
    01:00 -10°C° 0 mm 2 mps 761 mmHg 79%
    02:00 -10°C° 0 mm 2 mps 761 mmHg 78%
    03:00 -9°C° 0 mm 2 mps 761 mmHg 74%
    04:00 -9°C° 0 mm 3 mps 760 mmHg 70%
    05:00 -8°C° 0 mm 3 mps 760 mmHg 65%
    06:00 -8°C° 0 mm 3 mps 760 mmHg 65%
    07:00 -8°C° 0 mm 4 mps 759 mmHg 65%
    08:00 -8°C° 0 mm 4 mps 759 mmHg 65%
    09:00 -8°C° 0.4 mm 5 mps 758 mmHg 72%
    10:00 -7°C° 0.4 mm 5 mps 758 mmHg 79%
    11:00 -8°C° 0.4 mm 6 mps 757 mmHg 86%
    12:00 -6°C° 0.2 mm 6 mps 756 mmHg 86%
    13:00 -5°C° 0.2 mm 6 mps 756 mmHg 85%
    14:00 -4°C° 0.2 mm 6 mps 755 mmHg 85%
    15:00 -4°C° 0.1 mm 5 mps 755 mmHg 86%
    16:00 -4°C° 0.1 mm 5 mps 755 mmHg 86%
    17:00 -2°C° 0.1 mm 5 mps 754 mmHg 87%
    18:00 -2°C° 0 mm 5 mps 754 mmHg 88%
    19:00 -2°C° 0 mm 4 mps 754 mmHg 89%
    20:00 -2°C° 0 mm 4 mps 754 mmHg 90%
    21:00 -2°C° 0 mm 4 mps 754 mmHg 91%
    22:00 -1°C° 0 mm 5 mps 754 mmHg 91%
    23:00 -1°C° 0 mm 5 mps 753 mmHg 92%

    Tomorrow, 24 February, Sunday

    Time Temperature Precipitation Wind Pressure Humidity
    00:00 -1°C° 0 mm 4 mps 753 mmHg 93%
    01:00 -1°C° 0 mm 4 mps 753 mmHg 94%
    02:00 0°C° 0 mm 3 mps 753 mmHg 95%
    03:00 0°C° 0 mm 3 mps 753 mmHg 95%
    04:00 0°C° 0 mm 3 mps 753 mmHg 96%
    05:00 +1°C° 0 mm 2 mps 753 mmHg 96%
    06:00 +1°C° 0 mm 2 mps 753 mmHg 96%
    07:00 +1°C° 0 mm 2 mps 753 mmHg 97%
    08:00 +1°C° 0 mm 2 mps 753 mmHg 97%
    09:00 0°C° 0 mm 3 mps 753 mmHg 96%
    10:00 0°C° 0 mm 3 mps 753 mmHg 96%
    11:00 +1°C° 0 mm 3 mps 753 mmHg 95%
    12:00 +1°C° 0 mm 3 mps 753 mmHg 94%
    13:00 +1°C° 0 mm 3 mps 752 mmHg 93%
    14:00 +2°C° 0 mm 3 mps 752 mmHg 92%
    15:00 +1°C° 0 mm 3 mps 752 mmHg 93%
    16:00 +1°C° 0 mm 3 mps 751 mmHg 94%
    17:00 +1°C° 0 mm 3 mps 751 mmHg 94%
    18:00 +1°C° 0 mm 3 mps 750 mmHg 95%
    19:00 0°C° 0 mm 4 mps 750 mmHg 95%
    20:00 0°C° 0 mm 4 mps 750 mmHg 95%
    21:00 0°C° 0 mm 4 mps 750 mmHg 94%
    22:00 0°C° 0 mm 4 mps 750 mmHg 93%
    23:00 0°C° 0 mm 5 mps 750 mmHg 93%

    Day after tomorrow, 25 February, Monday

    Time Temperature Precipitation Wind Pressure Humidity
    00:00 0°C° 0 mm 4 mps 750 mmHg 93%
    01:00 -1°C° 0 mm 4 mps 750 mmHg 93%
    02:00 -1°C° 0 mm 4 mps 750 mmHg 93%
    03:00 -1°C° 0 mm 4 mps 750 mmHg 92%
    04:00 -1°C° 0 mm 4 mps 750 mmHg 92%
    05:00 -2°C° 0 mm 4 mps 750 mmHg 92%
    06:00 -2°C° 0 mm 4 mps 751 mmHg 91%
    07:00 -2°C° 0 mm 4 mps 751 mmHg 89%
    08:00 -3°C° 0 mm 4 mps 751 mmHg 88%
    09:00 -2°C° 0 mm 5 mps 751 mmHg 84%
    10:00 -1°C° 0 mm 5 mps 751 mmHg 80%
    11:00 -1°C° 0 mm 6 mps 751 mmHg 77%
    12:00 +1°C° 0 mm 6 mps 751 mmHg 76%
    13:00 +1°C° 0 mm 6 mps 750 mmHg 76%
    14:00 +2°C° 0 mm 6 mps 750 mmHg 75%
    15:00 +1°C° 0 mm 5 mps 750 mmHg 77%
    16:00 +1°C° 0 mm 5 mps 750 mmHg 79%
    17:00 0°C° 0 mm 5 mps 750 mmHg 81%
    18:00 0°C° 0 mm 4 mps 750 mmHg 84%
    19:00 -1°C° 0 mm 4 mps 750 mmHg 87%
    20:00 -2°C° 0 mm 4 mps 749 mmHg 90%
    21:00 -1°C° 0 mm 3 mps 749 mmHg 91%
    22:00 -1°C° 0 mm 3 mps 749 mmHg 92%
    23:00 -2°C° 0 mm 3 mps 749 mmHg 93%

    26 February, Tuesday

    Time Temperature Precipitation Wind Pressure Humidity
    00:00 -2°C° 0 mm 3 mps 749 mmHg 94%
    01:00 -2°C° 0 mm 3 mps 749 mmHg 94%
    02:00 -2°C° 0 mm 3 mps 748 mmHg 94%
    03:00 -1°C° 0.3 mm 3 mps 748 mmHg 93%
    04:00 -1°C° 0.3 mm 3 mps 747 mmHg 92%
    05:00 -1°C° 0.3 mm 4 mps 746 mmHg 92%
    06:00 -1°C° 0 mm 4 mps 746 mmHg 89%
    07:00 -1°C° 0 mm 5 mps 745 mmHg 87%
    08:00 0°C° 0 mm 5 mps 744 mmHg 85%
    09:00 0°C° 0 mm 5 mps 744 mmHg 85%
    10:00 0°C° 0 mm 5 mps 744 mmHg 86%
    11:00 0°C° 0 mm 5 mps 744 mmHg 86%
    12:00 +1°C° 0 mm 5 mps 745 mmHg 82%
    13:00 +1°C° 0 mm 5 mps 745 mmHg 78%
    14:00 +2°C° 0 mm 5 mps 745 mmHg 74%
    15:00 +1°C° 0 mm 5 mps 745 mmHg 75%
    16:00 +1°C° 0 mm 5 mps 746 mmHg 76%
    17:00 0°C° 0 mm 5 mps 746 mmHg 77%
    18:00 0°C° 0 mm 4 mps 746 mmHg 78%
    19:00 -1°C° 0 mm 4 mps 747 mmHg 80%
    20:00 -1°C° 0 mm 4 mps 747 mmHg 82%
    21:00 -2°C° 0 mm 4 mps 748 mmHg 84%
    22:00 -1°C° 0 mm 3 mps 748 mmHg 86%
    23:00 -2°C° 0 mm 3 mps 748 mmHg 88%

    27 February, Wednesday

    Time Temperature Precipitation Wind Pressure Humidity
    00:00 -2°C° 0 mm 3 mps 748 mmHg 90%
    01:00 -2°C° 0 mm 2 mps 748 mmHg 92%
    02:00 -3°C° 0 mm 2 mps 748 mmHg 93%
    03:00 -3°C° 0 mm 2 mps 748 mmHg 94%
    04:00 -3°C° 0 mm 2 mps 748 mmHg 94%
    05:00 -3°C° 0 mm 2 mps 748 mmHg 95%
    06:00 -3°C° 0 mm 2 mps 747 mmHg 92%
    07:00 -3°C° 0 mm 2 mps 747 mmHg 89%
    08:00 -2°C° 0 mm 2 mps 746 mmHg 87%
    09:00 -1°C° 0 mm 3 mps 745 mmHg 82%
    10:00 0°C° 0 mm 3 mps 744 mmHg 78%
    11:00 0°C° 0 mm 4 mps 742 mmHg 73%
    12:00 +1°C° 0.1 mm 4 mps 741 mmHg 71%
    13:00 +1°C° 0.1 mm 5 mps 739 mmHg 70%
    14:00 +2°C° 0.1 mm 6 mps 738 mmHg 69%
    15:00 +2°C° 0 mm 6 mps 736 mmHg 74%
    16:00 +2°C° 0 mm 6 mps 735 mmHg 79%
    17:00 +2°C° 0 mm 6 mps 734 mmHg 84%
    18:00 +1°C° 0 mm 5 mps 734 mmHg 85%
    19:00 0°C° 0 mm 5 mps 733 mmHg 85%
    20:00 -1°C° 0 mm 4 mps 732 mmHg 86%
    21:00 -1°C° 0 mm 4 mps 732 mmHg 84%
    22:00 -1°C° 0 mm 4 mps 731 mmHg 81%
    23:00 -1°C° 0 mm 4 mps 730 mmHg 78%

    28 February, Thursday

    Time Temperature Precipitation Wind Pressure Humidity
    00:00 -1°C° 0 mm 5 mps 730 mmHg 77%
    01:00 -1°C° 0 mm 5 mps 729 mmHg 77%
    02:00 -1°C° 0 mm 5 mps 728 mmHg 76%
    03:00 -1°C° 0 mm 5 mps 728 mmHg 78%
    04:00 -1°C° 0 mm 5 mps 727 mmHg 79%
    05:00 -1°C° 0 mm 5 mps 727 mmHg 80%
    06:00 -2°C° 0 mm 5 mps 726 mmHg 80%
    07:00 -2°C° 0 mm 5 mps 726 mmHg 81%
    08:00 -2°C° 0 mm 5 mps 726 mmHg 81%
    09:00 -1°C° 0 mm 5 mps 726 mmHg 78%
    10:00 -1°C° 0 mm 6 mps 726 mmHg 74%
    11:00 +1°C° 0 mm 6 mps 726 mmHg 71%
    12:00 +1°C° 0 mm 6 mps 725 mmHg 70%
    13:00 +1°C° 0 mm 6 mps 725 mmHg 69%
    14:00 +1°C° 0 mm 6 mps 725 mmHg 69%
    15:00 -1°C° 0.1 mm 6 mps 725 mmHg 69%
    16:00 -2°C° 0.1 mm 6 mps 725 mmHg 69%
    17:00 -2°C° 0.1 mm 6 mps 725 mmHg 69%
    18:00 -3°C° 0.1 mm 6 mps 725 mmHg 69%
    19:00 -2°C° 0.1 mm 5 mps 725 mmHg 69%
    20:00 -4°C° 0.1 mm 5 mps 725 mmHg 69%
    21:00 -4°C° 0.1 mm 6 mps 725 mmHg 73%
    22:00 -4°C° 0.1 mm 6 mps 725 mmHg 76%
    23:00 -4°C° 0.1 mm 6 mps 725 mmHg 79%
    Show more